Back to catalog

VIASAT 3-F3

AliveCommunicationsGEO
NORAD 68893·PAYLOAD·🇺🇸 United States

Launched Apr 29, 2026 from Cape Canaveral Space Force Station

Loading…

TLE

FreshSource: Space-Track

Epoch: Sep 14, 2026, 12:50 UTC

1 68893U 26096A   26257.53527737 -.00000131  00000-0  00000-0 0  9994
2 68893   0.0118 225.2958 0000229  26.5974  92.9073  1.00272782  1500

Track VIASAT 3-F3 in real time with AllMySat

Download on the App Store